GW1306 Weather Reports


time (UTC)temp
C
wind
direction
speed
KPH
gust
KPH
rain 1hr
cm
rain 24hr
cm
rain mn
cm
humidity
%
barometer
mb
20260505153325 26 169 3.2 4.8 0.00 0.00 0.00 44 1014.6
20260505152822 25 62 1.6 1.6 0.00 0.00 0.00 43 1014.5
20260505152319 25 67 3.2 4.8 0.00 0.00 0.00 44 1014.6
20260505151814 25 251 1.6 3.2 0.00 0.00 0.00 44 1014.7
20260505151311 25 59 1.6 1.6 0.00 0.00 0.00 44 1014.8
20260505150808 25 37 3.2 3.2 0.00 0.00 0.00 45 1014.6
20260505150305 25 283 0.0 0.0 0.00 0.00 0.00 46 1014.7
20260505140229 22 93 0.0 1.6 0.00 0.00 0.00 49 1014.7
20260505130153 21 207 1.6 1.6 0.00 0.00 0.00 53 1015.1
20260505124643 20 48 1.6 3.2 0.00 0.00 0.00 55 1015.1
20260505124139 20 85 3.2 3.2 0.00 0.00 0.00 55 1015.2
20260505123635 19 63 0.0 1.6 0.00 0.00 0.00 56 1015.1
20260505123132 18 241 3.2 3.2 0.00 0.00 0.00 56 1015.0
20260505122629 18 295 3.2 4.8 0.00 0.00 0.00 57 1015.1
20260505122126 18 140 0.0 1.6 0.00 0.00 0.00 57 1015.0
20260505121622 18 95 0.0 0.0 0.00 0.00 0.00 57 1015.0
20260505121119 18 96 1.6 3.2 0.00 0.00 0.00 57 1014.9
20260505120615 18 7 0.0 0.0 0.00 0.00 0.00 57 1014.7
20260505120111 18 102 1.6 1.6 0.00 0.00 0.00 59 1014.8
20260505115606 18 299 3.2 4.8 0.00 0.00 0.00 58 1014.8
20260505115104 17 206 1.6 3.2 0.00 0.00 0.00 58 1014.9
20260505114600 17 20 1.6 3.2 0.00 0.00 0.00 58 1014.6
20260505114057 17 158 1.6 3.2 0.00 0.00 0.00 59 1014.7
20260505113553 17 332 0.0 0.0 0.00 0.00 0.00 58 1014.6
20260505113050 17 229 0.0 1.6 0.00 0.00 0.00 59 1014.6
20260505112546 17 102 0.0 1.6 0.00 0.00 0.00 59 1014.5
20260505112044 17 27 1.6 4.8 0.00 0.00 0.00 59 1014.4
20260505111538 17 25 1.6 1.6 0.00 0.00 0.00 59 1014.6
20260505111035 17 197 1.6 3.2 0.00 0.00 0.00 58 1014.3
20260505110531 17 55 1.6 1.6 0.00 0.00 0.00 59 1014.2
20260505101958 16 183 0.0 1.6 0.00 0.00 0.00 59 1014.0
20260505101455 16 72 0.0 0.0 0.00 0.00 0.00 60 1014.0
20260505100952 16 50 1.6 1.6 0.00 0.00 0.00 60 1013.9
20260505100449 16 71 0.0 1.6 0.00 0.00 0.00 60 1013.8
20260505095945 16 69 1.6 1.6 0.00 0.00 0.00 59 1013.8
20260505095442 16 63 1.6 1.6 0.00 0.00 0.00 59 1013.6
20260505094938 16 104 1.6 1.6 0.00 0.00 0.00 59 1013.7
20260505094435 16 78 0.0 0.0 0.00 0.00 0.00 59 1013.7
20260505093931 16 61 0.0 1.6 0.00 0.00 0.00 59 1013.7
20260505093428 16 68 0.0 1.6 0.00 0.00 0.00 60 1013.6
20260505092925 16 108 1.6 1.6 0.00 0.00 0.00 59 1013.6
20260505092423 16 82 1.6 3.2 0.00 0.00 0.00 59 1013.5
20260505091920 16 149 1.6 1.6 0.00 0.00 0.00 60 1013.7
20260505091418 16 63 1.6 1.6 0.00 0.00 0.00 60 1013.5
20260505090916 16 292 3.2 3.2 0.00 0.00 0.00 59 1013.7
20260505090414 17 118 0.0 1.6 0.00 0.00 0.00 59 1013.5
20260505085911 17 45 3.2 3.2 0.00 0.00 0.00 59 1013.7
20260505085409 17 55 1.6 1.6 0.00 0.00 0.00 58 1013.6
20260505084907 17 88 1.6 3.2 0.00 0.00 0.00 59 1013.7
20260505084405 17 70 0.0 0.0 0.00 0.00 0.00 59 1013.6
20260505083903 16 255 3.2 3.2 0.00 0.00 0.00 60 1013.6
20260505083400 16 119 1.6 1.6 0.00 0.00 0.00 60 1013.6
20260505082855 16 152 0.0 0.0 0.00 0.00 0.00 60 1013.5
20260505082352 17 67 0.0 1.6 0.00 0.00 0.00 59 1013.6
20260505081849 17 220 3.2 4.8 0.00 0.00 0.00 59 1013.5
20260505081345 16 40 1.6 3.2 0.00 0.00 0.00 60 1013.3
20260505080842 16 301 0.0 1.6 0.00 0.00 0.00 60 1013.6
20260505080338 16 119 0.0 0.0 0.00 0.00 0.00 60 1013.6
20260505075833 16 242 1.6 1.6 0.00 0.00 0.00 61 1013.7
20260505075331 16 145 1.6 1.6 0.00 0.00 0.00 62 1013.5
20260505074828 16 48 1.6 3.2 0.00 0.00 0.00 62 1013.6
20260505074325 16 123 0.0 1.6 0.00 0.00 0.00 62 1013.7
20260505073822 16 79 0.0 0.0 0.00 0.00 0.00 63 1013.5
20260505073320 16 85 1.6 1.6 0.00 0.00 0.00 63 1013.6
20260505072817 16 218 1.6 1.6 0.00 0.00 0.00 64 1013.6
20260505072313 16 68 0.0 1.6 0.00 0.00 0.00 64 1013.6
20260505071809 16 59 0.0 1.6 0.00 0.00 0.00 64 1013.5
20260505071306 16 81 1.6 1.6 0.00 0.00 0.00 64 1013.5
20260505070804 16 107 0.0 0.0 0.00 0.00 0.00 64 1013.4
20260505070300 16 75 0.0 1.6 0.00 0.00 0.00 64 1013.6
20260505065755 16 97 0.0 0.0 0.00 0.00 0.00 64 1013.5
20260505065252 16 77 1.6 1.6 0.00 0.00 0.00 64 1013.4
20260505064749 16 104 0.0 0.0 0.00 0.00 0.00 64 1013.5
20260505064247 16 76 0.0 1.6 0.00 0.00 0.00 64 1013.6
20260505063744 16 80 1.6 1.6 0.00 0.00 0.00 64 1013.5
20260505063241 16 79 0.0 1.6 0.00 0.00 0.00 64 1013.7
20260505062737 16 74 0.0 0.0 0.00 0.00 0.00 63 1013.5
20260505062234 16 77 0.0 1.6 0.00 0.00 0.00 63 1013.5
20260505061731 16 80 0.0 1.6 0.00 0.00 0.00 62 1013.5
20260505061229 16 71 0.0 0.0 0.00 0.00 0.00 61 1013.4
20260505060726 16 72 0.0 0.0 0.00 0.00 0.00 61 1013.3
20260505060224 16 73 0.0 0.0 0.00 0.00 0.00 62 1013.5
20260505055718 16 72 1.6 1.6 0.00 0.00 0.00 62 1013.5
20260505055215 16 74 0.0 0.0 0.00 0.00 0.00 62 1013.5
20260505054713 16 75 0.0 0.0 0.00 0.00 0.00 62 1013.6
20260505054210 16 75 0.0 0.0 0.00 0.00 0.00 62 1013.5
20260505053709 16 75 0.0 1.6 0.00 0.00 0.00 62 1013.6
20260505053204 16 81 0.0 0.0 0.00 0.00 0.00 62 1013.6
20260505052702 16 73 1.6 1.6 0.00 0.00 0.00 63 1013.8
20260505052158 16 77 0.0 0.0 0.00 0.00 0.00 64 1013.6
20260505051656 16 71 0.0 1.6 0.00 0.00 0.00 65 1013.6
20260505051154 16 79 0.0 1.6 0.00 0.00 0.00 66 1013.6
20260505050651 16 77 0.0 0.0 0.00 0.00 0.00 66 1013.6
20260505050149 16 74 0.0 0.0 0.00 0.00 0.00 67 1013.5
20260505041619 16 80 0.0 0.0 0.00 0.00 0.00 69 1013.7
20260505041117 16 75 1.6 1.6 0.00 0.00 0.00 69 1013.6
20260505040613 16 77 0.0 1.6 0.00 0.00 0.00 68 1013.4
20260505040110 17 77 0.0 1.6 0.00 0.00 0.00 68 1013.5
20260505035607 17 78 0.0 1.6 0.00 0.00 0.00 67 1013.5
20260505035103 17 65 0.0 0.0 0.00 0.00 0.00 67 1013.6
20260505034600 17 75 0.0 0.0 0.00 0.00 0.00 66 1013.3
20260505034056 17 100 1.6 1.6 0.00 0.00 0.00 65 1013.4
20260505033553 17 78 0.0 0.0 0.00 0.00 0.00 65 1013.2
20260505033052 17 84 0.0 1.6 0.00 0.00 0.00 65 1013.4
20260505032550 17 100 0.0 1.6 0.00 0.00 0.00 66 1013.3
20260505032046 17 77 1.6 1.6 0.00 0.00 0.00 66 1013.3
20260505031543 17 63 1.6 1.6 0.00 0.00 0.00 66 1013.4
20260505031039 17 78 0.0 0.0 0.00 0.00 0.00 67 1013.3
20260505030537 17 114 1.6 4.8 0.00 0.00 0.00 67 1013.4
20260505030032 17 78 1.6 3.2 0.00 0.00 0.00 68 1013.3
20260505025528 17 108 0.0 0.0 0.00 0.00 0.00 68 1013.4
20260505025027 17 77 0.0 1.6 0.00 0.00 0.00 67 1013.4
20260505024524 17 85 0.0 0.0 0.00 0.00 0.00 67 1013.4
20260505024021 17 73 1.6 3.2 0.00 0.00 0.00 66 1013.2
20260505023518 17 79 1.6 1.6 0.00 0.00 0.00 65 1013.3
20260505023016 17 62 0.0 1.6 0.00 0.00 0.00 64 1013.3
20260505022513 17 68 1.6 3.2 0.00 0.00 0.00 63 1013.5
20260505022010 18 320 1.6 1.6 0.00 0.00 0.00 62 1013.4
20260505021507 18 66 1.6 1.6 0.00 0.00 0.00 60 1013.4
20260505021003 18 60 1.6 3.2 0.00 0.00 0.00 59 1013.2
20260505020458 18 76 1.6 1.6 0.00 0.00 0.00 58 1013.5
20260505015954 18 84 1.6 1.6 0.00 0.00 0.00 58 1013.2
20260505015452 18 91 0.0 0.0 0.00 0.00 0.00 59 1013.1
20260505014949 18 75 1.6 1.6 0.00 0.00 0.00 60 1013.0
20260505014446 18 97 1.6 1.6 0.00 0.00 0.00 61 1013.0
20260505013943 18 76 1.6 1.6 0.00 0.00 0.00 61 1013.1
20260505013440 18 83 1.6 1.6 0.00 0.00 0.00 61 1013.0
20260505012937 18 66 1.6 1.6 0.00 0.00 0.00 61 1013.2
20260505012436 18 75 0.0 0.0 0.00 0.00 0.00 61 1013.0
20260505011932 18 56 0.0 0.0 0.00 0.00 0.00 61 1013.0
20260505011428 18 53 0.0 0.0 0.00 0.00 0.00 61 1013.0
20260505010925 18 62 1.6 3.2 0.00 0.00 0.00 61 1013.0
20260505010421 18 77 1.6 1.6 0.00 0.00 0.00 61 1012.9
20260505005917 18 85 1.6 3.2 0.00 0.00 0.00 60 1012.9
20260505005414 18 67 1.6 1.6 0.00 0.00 0.00 60 1012.9
20260505004911 18 76 1.6 1.6 0.00 0.00 0.00 60 1012.8
20260505004407 18 74 1.6 3.2 0.00 0.00 0.00 60 1012.6
20260505003905 18 81 1.6 1.6 0.00 0.00 0.00 60 1012.8
20260505003402 18 73 1.6 1.6 0.00 0.00 0.00 60 1012.7
20260505002858 18 67 1.6 3.2 0.00 0.00 0.00 60 1012.8
20260505002354 18 79 1.6 1.6 0.00 0.00 0.00 59 1012.8
20260505001853 18 78 1.6 1.6 0.00 0.00 0.00 59 1012.7
20260505001350 19 332 1.6 1.6 0.00 0.00 0.00 58 1012.7
20260505000847 19 66 1.6 1.6 0.00 0.00 0.00 58 1012.7
20260505000345 19 68 1.6 1.6 0.00 0.00 0.00 57 1012.9
20260504235841 19 76 1.6 1.6 0.00 0.00 0.00 56 1012.8
20260504235338 19 64 3.2 3.2 0.00 0.00 0.00 55 1012.7
20260504234835 20 80 1.6 1.6 0.00 0.00 0.00 53 1012.9
20260504234333 20 69 1.6 1.6 0.00 0.00 0.00 52 1012.7
20260504233829 20 44 3.2 3.2 0.00 0.00 0.00 51 1012.8
20260504233325 20 44 4.8 4.8 0.00 0.00 0.00 50 1012.8
20260504232822 20 58 3.2 4.8 0.00 0.00 0.00 49 1012.8
20260504232319 20 71 0.0 1.6 0.00 0.00 0.00 49 1012.7
20260504231815 20 55 8.0 9.7 0.00 0.00 0.00 48 1012.7
20260504231312 20 67 3.2 4.8 0.00 0.00 0.00 48 1012.7
20260504230808 20 52 1.6 3.2 0.00 0.00 0.00 48 1012.9
20260504230306 20 21 3.2 3.2 0.00 0.00 0.00 48 1012.8
20260504225805 20 32 1.6 3.2 0.00 0.00 0.00 47 1012.8
20260504225301 20 14 4.8 8.0 0.00 0.00 0.00 47 1012.7
20260504224758 21 67 4.8 8.0 0.00 0.00 0.00 46 1012.9
20260504224255 21 93 3.2 3.2 0.00 0.00 0.00 45 1012.8
20260504223751 21 28 4.8 4.8 0.00 0.00 0.00 44 1012.8
20260504223247 21 75 6.4 9.7 0.00 0.00 0.00 44 1012.7
20260504222744 21 55 8.0 11.3 0.00 0.00 0.00 43 1012.7
20260504222241 21 71 3.2 3.2 0.00 0.00 0.00 43 1012.7
20260504221739 21 60 3.2 4.8 0.00 0.00 0.00 42 1012.7
20260504221236 22 50 8.0 11.3 0.00 0.00 0.00 42 1012.7
20260504220732 22 22 6.4 8.0 0.00 0.00 0.00 41 1012.8
20260504220229 22 331 3.2 4.8 0.00 0.00 0.00 41 1012.7
20260504215727 22 57 1.6 1.6 0.00 0.00 0.00 41 1012.6
20260504215223 22 62 3.2 3.2 0.00 0.00 0.00 40 1012.6
20260504214719 22 7 4.8 4.8 0.00 0.00 0.00 40 1012.6
20260504214216 22 142 1.6 3.2 0.00 0.00 0.00 39 1012.5
20260504213712 22 290 3.2 3.2 0.00 0.00 0.00 40 1012.6
20260504213208 22 39 4.8 4.8 0.00 0.00 0.00 40 1012.7
20260504212700 22 68 6.4 9.7 0.00 0.00 0.00 39 1012.8
20260504212156 22 34 1.6 1.6 0.00 0.00 0.00 39 1012.7
20260504211654 22 40 4.8 8.0 0.00 0.00 0.00 38 1012.7
20260504211150 23 48 1.6 3.2 0.00 0.00 0.00 39 1012.7
20260504210648 23 64 0.0 1.6 0.00 0.00 0.00 39 1012.6
20260504210144 22 97 4.8 9.7 0.00 0.00 0.00 38 1012.6
20260504205642 23 58 3.2 4.8 0.00 0.00 0.00 38 1012.7
20260504205139 23 51 1.6 3.2 0.00 0.00 0.00 39 1012.8
20260504204637 22 67 6.4 9.7 0.00 0.00 0.00 39 1012.9
20260504204136 23 73 3.2 3.2 0.00 0.00 0.00 38 1012.7
20260504203634 23 83 4.8 8.0 0.00 0.00 0.00 39 1012.8
20260504203132 23 52 1.6 3.2 0.00 0.00 0.00 38 1012.8
20260504202631 23 56 6.4 9.7 0.00 0.00 0.00 37 1012.9
20260504202129 24 40 1.6 4.8 0.00 0.00 0.00 36 1013.0
20260504201625 23 64 3.2 3.2 0.00 0.00 0.00 36 1012.9
20260504201123 23 329 1.6 1.6 0.00 0.00 0.00 36 1013.0
20260504200620 23 54 3.2 3.2 0.00 0.00 0.00 36 1013.2
20260504200116 23 114 0.0 1.6 0.00 0.00 0.00 37 1013.1
20260504195612 23 61 3.2 3.2 0.00 0.00 0.00 36 1013.2
20260504195109 23 90 4.8 8.0 0.00 0.00 0.00 36 1013.4
20260504194606 24 50 3.2 3.2 0.00 0.00 0.00 36 1013.4
20260504194101 24 191 0.0 1.6 0.00 0.00 0.00 37 1013.4
20260504193558 24 76 1.6 1.6 0.00 0.00 0.00 36 1013.6
20260504193057 23 58 1.6 1.6 0.00 0.00 0.00 38 1013.7
20260504192555 23 354 1.6 3.2 0.00 0.00 0.00 36 1013.7
20260504192052 23 83 0.0 1.6 0.00 0.00 0.00 40 1013.7
20260504191550 23 58 1.6 3.2 0.00 0.00 0.00 37 1014.0
20260504191046 22 47 4.8 8.0 0.00 0.00 0.00 37 1013.9
20260504190542 23 59 6.4 8.0 0.00 0.00 0.00 36 1014.2
20260504190038 23 300 3.2 4.8 0.00 0.00 0.00 37 1014.1
20260504185536 23 73 3.2 3.2 0.00 0.00 0.00 36 1014.2
20260504185032 23 51 1.6 1.6 0.00 0.00 0.00 36 1014.0
20260504184528 23 283 1.6 3.2 0.00 0.00 0.00 36 1014.3
20260504184023 23 234 4.8 8.0 0.00 0.00 0.00 36 1014.4
20260504183521 23 57 1.6 1.6 0.00 0.00 0.00 37 1014.7
20260504183019 22 62 3.2 3.2 0.00 0.00 0.00 36 1014.5
20260504182515 22 44 3.2 3.2 0.00 0.00 0.00 36 1014.5
20260504182013 23 82 1.6 1.6 0.00 0.00 0.00 35 1014.4
20260504181509 22 89 0.0 1.6 0.00 0.00 0.00 34 1014.7
20260504181008 23 176 1.6 1.6 0.00 0.00 0.00 36 1015.1
20260504180507 23 60 1.6 1.6 0.00 0.00 0.00 32 1014.7
20260504180005 23 40 1.6 1.6 0.00 0.00 0.00 31 1014.9
20260504175502 23 281 1.6 3.2 0.00 0.00 0.00 33 1014.9
20260504174959 23 52 3.2 3.2 0.00 0.00 0.00 33 1015.0
20260504174456 23 304 1.6 1.6 0.00 0.00 0.00 31 1014.9
20260504173953 23 293 4.8 8.0 0.00 0.00 0.00 31 1015.2
20260504173450 23 269 4.8 9.7 0.00 0.00 0.00 32 1015.5
20260504172947 23 185 4.8 8.0 0.00 0.00 0.00 32 1015.4
20260504172443 23 206 1.6 3.2 0.00 0.00 0.00 31 1015.4
20260504171940 23 151 0.0 0.0 0.00 0.00 0.00 32 1015.3
20260504171437 22 56 0.0 1.6 0.00 0.00 0.00 33 1015.3
20260504170934 22 245 1.6 1.6 0.00 0.00 0.00 32 1015.5
20260504170430 22 83 1.6 1.6 0.00 0.00 0.00 33 1015.4
20260504160349 21 82 1.6 1.6 0.00 0.00 0.00 37 1016.2